Location: Champaign/Urbana Astronomical Society Observatory
(40.0333°N, 88.2833°W)
Time: 08:38:06
(UTC-06:00)

RS-15 - Visible Passes

Search period start: 22 November 2019 00:00
Search period end: 02 December 2019 00:00
Orbit: 1900 x 2144 km, 64.8° (Epoch: 21 November)

Date Brightness Start Highest point End Pass type
(mag) Time Alt. Az. Time Alt. Az. Time Alt. Az.
22 Nov 9.2 17:02:36 10° NNW 17:09:51 19° N 17:17:08 10° NE visible
22 Nov 8.3 19:16:08 10° NNW 19:25:43 41° NE 19:25:43 41° NE visible
22 Nov 9.0 21:28:29 10° NW 21:33:28 32° NW 21:33:28 32° NW visible
23 Nov 8.4 18:40:06 10° NNW 18:49:49 34° NE 18:51:10 33° NE visible
23 Nov 8.6 20:52:20 10° NW 20:58:56 44° NW 20:58:56 44° NW visible
24 Nov 8.7 18:04:00 10° NNW 18:13:07 28° NNE 18:16:41 24° ENE visible
24 Nov 8.2 20:16:16 10° NNW 20:24:28 57° NNW 20:24:28 57° NNW visible
24 Nov 9.8 22:30:08 10° NW 22:32:14 15° WNW 22:32:14 15° WNW visible
25 Nov 8.9 17:27:47 10° NNW 17:36:14 24° NNE 17:42:16 16° ENE visible
25 Nov 7.9 19:40:14 10° NNW 19:50:03 63° NNE 19:50:03 63° NNE visible
25 Nov 9.4 21:53:22 10° NW 21:57:51 24° WNW 21:57:51 24° WNW visible
26 Nov 9.0 16:51:25 10° NNW 16:59:15 21° NNE 17:07:07 10° ENE visible
26 Nov 7.9 19:04:14 10° NNW 19:14:57 53° NE 19:15:44 52° ENE visible
26 Nov 8.9 21:16:54 10° NW 21:23:32 37° WNW 21:23:32 37° WNW visible
27 Nov 8.2 18:28:15 10° NNW 18:38:34 43° NE 18:41:31 37° ENE visible
27 Nov 8.3 20:40:37 10° NW 20:49:20 54° WNW 20:49:20 54° WNW visible
28 Nov 8.4 17:52:13 10° NNW 18:02:01 35° NE 18:07:26 24° E visible
28 Nov 7.9 20:04:27 10° NW 20:15:15 77° WSW 20:15:15 77° WSW visible
28 Nov 9.8 22:19:53 10° WNW 22:23:05 15° W 22:23:05 15° W visible
29 Nov 8.6 17:16:07 10° NNW 17:25:20 29° NNE 17:33:31 13° E visible
29 Nov 7.8 19:28:23 10° NNW 19:39:28 85° ENE 19:41:21 68° SE visible
29 Nov 9.4 21:42:24 10° NW 21:49:12 24° W 21:49:12 24° W visible
30 Nov 8.8 16:39:56 10° NNW 16:48:29 25° NNE 16:57:08 10° ENE visible
30 Nov 7.8 18:52:21 10° NNW 19:03:21 69° NE 19:07:43 43° ESE visible
30 Nov 9.0 21:05:34 10° NW 21:14:54 33° WSW 21:15:36 33° WSW visible
01 Dec 8.0 18:16:21 10° NNW 18:27:07 55° NE 18:34:29 24° ESE visible
01 Dec 8.6 20:29:03 10° NW 20:39:13 45° WSW 20:42:24 37° SW visible
